STARLINK-1008 (44714 NORAD) Tracking and Keplerian Element Data

This shows tracking and keplerian element data for the satellite.

Feedback or suggestion? Click here.




ElementValue
Catalog44714
NameSTARLINK-1008
Epoch Orbit1145
Epoch Day23.25001157
Epoch Year2020
RAAN169.3424
Inclination53.0061
Eccentricity0.0004212
Argument of Perigee22.5855
Mean Anonmoly261.2697
Mean Motion15.73106146
Decay Rate0.00836195
L11 44714U 19074B 20023.25001157 .00836195 00000-0 54124-2 0 9999
L22 44714 53.0061 169.3424 0004212 22.5855 261.2697 15.73106146 11450

Live tracking and technical data element details for STARLINK-1008 (NORAD 44714). STARLINK-1008 can be tracked NOW for your location showing map with azimuth and elevation plus other details from your city location.

Track the satellite on the map from your city or location and see movement details for azimuth, elevation, latitude, longitude, range, height, and movement on the map or in text.







IsCatalogInMostPopularTable: catalog: 44714, numindb: 18
Update: records affected: 1



GetName: 44714 STARLINK-1008

Hit Count: updated at: Fri, 24 Jan 2020 14:12:10 GMT